Wind_Speed
44 44 44 41 41 42 43 44 45 47 49 47 46 45 45 46 44 43 43 43 42 41 40 39 38 38 37 38 38 37 37 36 36 36 36 36 37 37 38 39 39 40 41 42
41 40 39 39 39 42 44 44 45 47 47 45 45 45 44 44 43 43 43 43 42 41 40 39 39 38 38 38 38 38 37 37 37 38 38 39 39 39 40 40 41 43 44 46
36 36 37 38 38 39 41 42 43 45 43 43 43 44 44 44 41 41 41 41 41 39 39 38 37 37 37 37 37 37 37 38 38 39 39 40 41 41 41 42 43 44 46 48
34 34 34 35 36 36 39 41 42 42 41 41 41 42 43 43 42 40 39 39 39 37 37 35 35 36 36 36 37 37 37 38 39 39 40 41 41 42 43 44 44 45 46 48
32 32 31 32 33 35 38 39 40 39 40 42 41 40 42 41 40 40 39 38 37 36 35 34 34 35 35 36 36 37 37 38 39 39 40 41 42 43 43 44 45 46 47 48
28 30 30 31 31 33 35 37 38 39 40 40 39 39 40 39 37 37 37 37 37 36 35 35 35 36 36 36 37 37 38 38 38 39 40 41 42 42 43 44 45 46 47 48
26 27 28 29 30 32 33 36 37 38 39 39 38 38 40 39 37 36 36 36 37 37 37 37 37 37 37 38 38 38 38 38 39 39 40 40 41 41 42 43 44 45 46 48
24 25 27 28 29 31 32 33 35 35 36 36 37 38 39 38 36 36 36 36 36 36 36 36 37 37 37 37 37 38 38 38 38 39 39 39 40 40 41 42 43 44 46 47
23 24 24 25 27 28 30 31 32 32 33 34 36 38 38 36 34 35 36 36 35 35 35 36 36 36 37 37 37 37 37 37 37 37 38 38 38 39 39 40 42 43 45 47
19 21 22 23 24 26 28 29 30 31 31 32 34 35 36 35 34 34 34 34 34 35 35 35 36 36 36 36 35 35 35 35 35 36 36 36 37 37 38 39 40 42 43 45
17 18 20 21 23 23 25 27 29 29 31 31 32 33 32 32 33 33 34 34 34 34 34 35 35 35 34 34 34 34 34 34 34 34 34 35 35 35 36 38 39 39 40 42
16 17 18 20 21 22 23 24 26 28 29 30 30 32 29 29 30 31 31 32 33 33 33 33 33 33 33 33 32 32 32 32 32 33 33 33 33 34 34 35 36 36 38 39
15 16 18 20 21 22 22 22 24 26 27 27 28 30 27 26 27 28 29 30 30 31 31 32 31 31 31 31 30 30 31 31 31 31 31 31 31 32 33 33 33 34 35 37
15 16 17 18 18 19 20 22 23 24 25 25 27 27 24 24 25 26 26 27 28 29 29 29 29 29 29 29 29 29 29 29 29 29 29 29 30 30 31 31 31 32 33 35
15 16 17 17 18 19 20 21 21 22 23 25 25 25 23 23 23 23 24 26 26 27 27 27 26 27 27 27 27 27 27 27 27 27 28 28 28 29 29 28 29 30 31 31
15 16 16 17 17 18 19 19 20 20 21 22 23 23 23 22 21 22 23 24 24 24 24 25 25 25 25 25 25 24 25 25 25 26 26 26 27 27 27 27 27 28 28 29
14 15 15 16 16 16 16 16 17 18 19 21 21 21 21 20 20 21 22 22 22 22 23 23 23 23 23 23 22 22 22 23 24 24 25 25 26 26 25 25 25 26 26 26
15 15 16 16 16 16 15 16 16 17 18 18 18 19 19 18 19 20 21 21 21 21 21 21 20 20 20 20 20 21 21 22 22 23 24 24 24 24 24 24 24 24 25 25
15 16 16 16 16 16 15 16 16 16 16 17 18 18 18 19 19 20 20 19 19 19 19 19 18 19 18 18 19 20 20 21 22 22 23 23 23 23 22 22 23 23 23 23
16 16 16 17 16 16 15 16 17 16 17 17 17 18 18 19 19 18 19 18 18 18 17 17 17 17 17 18 18 19 20 20 21 21 21 21 22 22 22 22 22 22 23 23
17 17 17 17 17 16 16 17 17 17 16 17 17 18 19 19 18 18 18 18 18 17 17 17 17 17 17 17 18 19 19 20 20 20 20 20 20 21 21 21 22 22 22 22
18 18 18 18 18 17 17 17 17 17 16 17 17 18 18 18 18 18 18 18 18 18 17 17 17 16 17 17 17 18 19 19 19 19 19 19 19 19 20 20 21 21 21 21
18 18 18 18 18 17 18 18 18 18 18 17 18 18 18 18 18 19 19 19 19 18 18 17 17 17 17 17 17 17 18 18 18 18 18 18 19 20 20 20 21 21 21 22
19 19 18 19 19 19 19 19 19 19 19 19 19 20 20 20 20 20 19 19 19 18 18 18 18 17 17 17 17 17 17 18 18 18 18 19 20 20 20 21 21 22 23 23
20 20 19 19 20 20 19 19 19 19 19 19 20 21 21 21 21 21 20 20 19 19 19 19 19 18 18 18 18 18 18 18 19 19 20 20 20 21 21 22 22 23 24 25
22 22 21 20 21 20 20 20 20 20 20 20 20 21 22 22 22 22 21 21 21 20 20 20 20 19 19 19 19 19 19 20 20 20 21 21 22 22 23 24 24 25 26 26
Wind_Direction
202 206 209 212 215 217 219 219 221 223 224 224 223 223 225 226 226 229 233 235 237 239 240 241 243 246 249 252 255 257 259 262 265 268 270 272 274 276 278 280 282 283 284 284
197 204 206 209 211 214 217 217 219 222 224 224 224 224 225 227 226 229 233 236 238 240 242 244 245 247 249 251 254 256 259 261 264 267 270 272 274 276 278 280 281 282 282 282
194 200 204 207 211 214 217 218 220 223 223 224 226 226 225 227 227 229 232 236 239 241 243 244 246 248 250 252 254 256 258 261 264 267 269 272 274 276 278 279 280 280 281 282
192 197 203 207 210 214 217 219 221 222 223 225 226 228 226 226 227 228 232 235 238 241 244 246 248 250 252 254 256 257 259 262 265 267 270 272 275 277 278 279 280 280 280 280
191 195 200 205 209 214 217 219 222 222 224 226 226 229 228 226 227 229 232 235 238 241 245 247 249 251 254 256 258 260 262 263 265 268 270 272 274 276 277 278 279 279 280 280
190 195 201 204 209 212 215 218 220 222 224 227 226 229 231 227 228 231 234 237 240 243 246 249 251 253 256 258 260 262 263 265 267 269 270 272 274 275 277 278 279 280 280 281
191 196 201 205 210 213 215 217 220 223 225 227 226 229 232 230 228 231 235 238 241 245 248 250 252 254 257 259 261 263 264 266 268 269 271 273 274 276 278 279 280 281 282 283
193 197 201 205 210 213 217 219 222 225 228 228 229 230 233 234 232 234 237 240 243 246 248 251 253 255 257 259 261 262 264 266 268 270 272 273 275 276 278 280 281 283 284 285
195 199 202 207 211 214 215 219 222 226 229 231 231 232 234 236 237 237 239 241 244 247 249 251 253 255 257 258 260 262 264 266 268 270 272 274 276 278 280 282 284 286 288 288
195 200 203 206 210 215 217 218 221 224 228 233 236 235 235 236 238 239 239 241 244 246 248 249 251 253 256 258 260 262 265 267 269 271 273 276 278 281 283 286 288 290 291 292
203 206 209 210 211 214 215 218 222 225 228 232 237 237 235 236 237 238 239 239 241 243 245 247 249 251 254 257 260 262 265 268 270 273 276 278 281 284 287 289 291 293 295 297
209 215 217 216 216 219 220 222 224 226 229 232 236 240 237 237 237 237 237 238 239 241 244 246 248 251 254 257 259 262 265 268 271 274 277 280 283 286 289 292 294 296 299 301
216 219 220 220 221 223 225 227 229 230 231 233 236 240 238 238 236 235 235 236 238 240 243 245 248 251 254 257 260 263 266 269 272 276 279 282 284 287 291 293 295 298 302 305
220 223 226 227 227 228 230 231 233 232 231 232 235 239 237 235 234 234 235 236 238 240 243 246 249 252 255 258 261 265 268 271 274 277 280 282 285 289 292 294 297 300 304 308
226 228 230 231 228 229 232 232 233 233 232 230 232 236 234 233 233 234 236 238 240 243 246 249 252 255 258 261 264 268 270 273 275 278 280 283 287 290 293 295 298 303 307 310
230 231 231 230 231 232 233 234 234 232 230 229 231 234 235 234 234 235 237 240 243 246 250 253 256 259 261 263 266 268 271 274 276 278 281 284 287 290 292 295 299 305 308 312
234 232 228 228 231 232 230 232 233 230 227 228 228 230 232 232 233 236 239 242 245 248 251 254 257 259 260 262 265 268 271 275 277 280 283 285 287 289 292 295 300 306 310 313
235 231 230 230 231 232 230 229 229 226 226 226 227 230 232 232 234 237 241 244 246 249 251 254 256 258 260 262 265 268 273 277 280 282 284 285 287 289 292 296 301 307 311 314
235 235 235 234 234 234 231 231 230 229 229 228 230 232 233 234 237 240 243 245 246 249 251 254 256 258 260 263 267 271 276 280 282 283 284 285 287 289 293 297 302 307 310 313
237 238 238 237 238 236 232 233 233 233 233 233 235 237 238 239 242 243 244 246 248 250 252 254 256 258 262 267 271 274 277 281 284 284 284 285 287 290 293 298 303 307 310 312
239 239 240 239 239 238 234 236 236 238 238 239 240 241 241 242 244 244 244 247 249 251 253 255 258 261 265 269 274 277 279 282 283 284 284 286 289 292 294 298 302 306 309 312
240 241 241 241 241 239 239 240 242 244 243 243 244 243 242 244 245 244 245 248 250 251 253 256 260 263 267 271 275 278 281 282 283 284 284 286 291 295 297 300 302 305 308 311
240 242 243 243 243 243 243 244 244 244 245 245 246 244 244 245 245 247 248 249 251 252 254 257 261 264 268 273 276 279 281 283 284 284 285 288 292 297 299 302 303 305 307 310
241 243 244 243 244 244 245 245 245 246 246 246 247 246 246 246 246 247 249 250 252 253 255 258 262 265 270 274 277 279 281 282 284 285 286 289 293 296 299 301 303 305 307 308
242 243 245 244 244 244 245 247 247 248 248 247 248 247 247 247 247 248 250 253 253 254 257 260 262 265 270 274 277 279 280 282 284 285 287 289 292 294 296 299 301 303 306 307
244 244 244 245 245 246 246 247 248 248 249 249 249 248 248 248 249 249 252 254 254 255 257 260 262 265 269 273 276 278 280 282 285 286 287 288 290 292 294 297 300 302 304 305
Height
5632 5642 5651 5662 5672 5680 5686 5693 5699 5706 5711 5720 5727 5734 5739 5745 5753 5759 5764 5769 5775 5779 5784 5789 5793 5796 5798 5800 5802 5804 5805 5807 5807 5808 5808 5809 5809 5809 5809 5809 5808 5807 5806 5805
5631 5641 5652 5659 5666 5672 5679 5686 5693 5697 5705 5714 5720 5727 5733 5739 5747 5753 5758 5763 5768 5773 5778 5782 5786 5789 5791 5793 5795 5797 5798 5799 5800 5801 5801 5801 5801 5802 5802 5801 5800 5799 5797 5795
5631 5641 5648 5656 5662 5669 5676 5683 5688 5693 5702 5708 5714 5721 5727 5734 5740 5746 5752 5757 5761 5766 5771 5775 5778 5781 5784 5786 5788 5789 5791 5792 5792 5793 5793 5793 5793 5793 5793 5793 5792 5790 5788 5786
5630 5638 5646 5653 5660 5666 5672 5678 5683 5691 5699 5703 5709 5715 5721 5728 5734 5740 5745 5750 5755 5759 5764 5768 5771 5774 5776 5778 5780 5781 5783 5784 5785 5785 5785 5785 5785 5785 5784 5783 5782 5781 5779 5777
5630 5637 5644 5651 5657 5663 5669 5675 5681 5687 5692 5697 5703 5709 5715 5721 5728 5734 5739 5744 5748 5753 5757 5760 5763 5766 5768 5770 5772 5773 5775 5776 5776 5777 5777 5776 5776 5776 5775 5773 5772 5771 5769 5767
5630 5637 5643 5648 5654 5660 5666 5672 5676 5681 5685 5692 5699 5704 5709 5716 5723 5728 5733 5737 5742 5746 5749 5752 5755 5758 5760 5762 5763 5765 5766 5767 5768 5768 5768 5767 5767 5766 5765 5764 5762 5761 5759 5756
5630 5635 5641 5646 5652 5657 5662 5668 5673 5676 5680 5687 5694 5698 5704 5710 5717 5722 5727 5731 5735 5738 5741 5744 5747 5750 5752 5753 5755 5756 5757 5758 5758 5758 5758 5758 5757 5756 5755 5754 5752 5750 5748 5745
5630 5635 5639 5644 5649 5654 5659 5665 5669 5674 5678 5683 5688 5692 5698 5704 5711 5716 5720 5724 5727 5730 5733 5736 5739 5741 5743 5745 5746 5747 5748 5749 5749 5749 5749 5748 5748 5747 5745 5744 5742 5739 5737 5734
5629 5634 5638 5643 5647 5652 5656 5660 5665 5671 5674 5678 5682 5687 5693 5698 5704 5709 5713 5716 5720 5723 5726 5728 5730 5732 5734 5736 5737 5738 5739 5740 5740 5740 5739 5739 5738 5737 5735 5733 5731 5728 5725 5722
5630 5634 5638 5641 5645 5649 5654 5658 5662 5666 5670 5674 5678 5682 5688 5693 5697 5701 5705 5709 5712 5715 5717 5720 5722 5724 5726 5727 5728 5729 5730 5731 5731 5730 5730 5729 5728 5727 5725 5723 5720 5717 5713 5710
5631 5634 5638 5640 5644 5647 5651 5655 5658 5662 5666 5670 5673 5678 5682 5686 5690 5694 5697 5701 5704 5707 5709 5712 5714 5716 5718 5719 5720 5721 5722 5722 5722 5721 5721 5720 5718 5717 5715 5712 5709 5706 5702 5698
5630 5633 5636 5639 5642 5645 5648 5652 5655 5659 5662 5665 5668 5674 5676 5680 5683 5687 5690 5693 5696 5699 5702 5704 5706 5708 5710 5711 5712 5713 5713 5713 5713 5713 5712 5711 5709 5707 5705 5702 5699 5695 5691 5687
5630 5633 5635 5637 5642 5643 5646 5649 5652 5655 5658 5661 5664 5669 5671 5674 5677 5680 5684 5687 5690 5692 5695 5697 5699 5701 5703 5704 5705 5705 5705 5705 5705 5704 5703 5702 5700 5698 5696 5693 5690 5686 5682 5677
5628 5631 5634 5636 5638 5640 5643 5645 5648 5651 5654 5657 5660 5663 5666 5669 5672 5675 5678 5681 5683 5686 5688 5691 5693 5694 5696 5697 5697 5698 5698 5697 5697 5696 5695 5694 5692 5690 5687 5684 5681 5677 5673 5668
5626 5628 5630 5632 5635 5637 5639 5642 5644 5647 5650 5653 5656 5658 5662 5664 5667 5670 5673 5675 5678 5680 5682 5684 5686 5687 5688 5689 5690 5690 5690 5690 5689 5688 5687 5686 5684 5682 5679 5677 5673 5669 5665 5660
5624 5626 5628 5630 5632 5634 5636 5638 5641 5643 5646 5649 5651 5655 5657 5660 5663 5666 5668 5670 5672 5675 5676 5678 5679 5681 5682 5682 5682 5683 5682 5682 5682 5681 5680 5678 5677 5675 5672 5669 5666 5662 5658 5653
5622 5623 5625 5628 5629 5631 5634 5636 5638 5640 5642 5645 5648 5652 5653 5657 5659 5661 5663 5665 5667 5669 5671 5672 5673 5674 5675 5675 5676 5676 5676 5676 5675 5674 5673 5672 5670 5668 5665 5662 5659 5655 5651 5647
5619 5621 5623 5625 5628 5629 5634 5633 5635 5637 5639 5642 5645 5647 5650 5653 5655 5657 5659 5661 5662 5664 5665 5666 5667 5668 5669 5669 5669 5670 5670 5669 5668 5667 5666 5665 5663 5661 5659 5656 5653 5649 5646 5642
5617 5619 5620 5622 5624 5627 5629 5631 5632 5634 5637 5639 5641 5644 5646 5648 5650 5652 5654 5655 5657 5658 5659 5660 5661 5662 5663 5663 5664 5664 5664 5663 5662 5661 5660 5659 5657 5655 5653 5650 5647 5644 5640 5637
5614 5616 5618 5620 5621 5624 5628 5628 5629 5632 5634 5636 5638 5640 5642 5644 5646 5648 5649 5650 5652 5653 5654 5655 5656 5657 5657 5658 5658 5658 5658 5657 5656 5655 5654 5652 5651 5649 5647 5644 5642 5638 5635 5631
5611 5612 5614 5616 5618 5621 5623 5624 5627 5630 5632 5633 5634 5636 5638 5639 5642 5643 5644 5646 5647 5648 5649 5650 5651 5652 5652 5652 5652 5652 5652 5651 5650 5649 5648 5647 5645 5643 5641 5639 5636 5634 5630 5627
5607 5609 5611 5612 5615 5619 5619 5621 5623 5626 5627 5628 5630 5631 5633 5635 5636 5638 5640 5641 5642 5643 5644 5645 5646 5647 5647 5647 5647 5647 5646 5645 5644 5643 5642 5641 5639 5638 5636 5634 5631 5628 5625 5622
5603 5605 5607 5609 5613 5614 5615 5616 5618 5620 5622 5624 5625 5627 5628 5630 5632 5633 5635 5636 5637 5638 5639 5640 5641 5641 5642 5642 5641 5641 5640 5640 5639 5638 5637 5635 5634 5632 5630 5628 5626 5623 5620 5617
5598 5600 5602 5604 5606 5608 5610 5612 5613 5615 5617 5619 5620 5622 5624 5625 5627 5629 5630 5631 5632 5633 5634 5635 5636 5636 5636 5636 5636 5635 5635 5634 5633 5632 5631 5630 5629 5627 5625 5623 5621 5618 5615 5612
5594 5595 5597 5599 5601 5603 5605 5607 5609 5610 5612 5614 5615 5617 5618 5620 5622 5623 5625 5626 5627 5628 5629 5630 5630 5630 5631 5630 5630 5630 5629 5629 5628 5627 5626 5624 5623 5621 5619 5617 5615 5612 5609 5606
5588 5590 5592 5594 5596 5598 5600 5602 5603 5605 5607 5608 5610 5611 5613 5614 5616 5617 5619 5620 5621 5622 5623 5624 5624 5625 5625 5625 5624 5624 5623 5623 5622 5621 5620 5618 5617 5615 5613 5611 5609 5606 5603 5600